Flag for Germany Weather past 2 weeks in Eisenach, Thuringia, Germany

Now
36 °F

Overcast.


Feels Like: 33 °F
Forecast: 33 / 44 °F
Wind: 3 mph from Northwest

Location: Meiningen

Current Time: Mar 5, 2015 at 10:29:46 PM

Latest Report: Mar 5, 2015 at 9:00 PM


Visibility: 22 mi

Pressure: 30.63 "Hg

Humidity: 75%

Dew point: 29 °F

Location of EisenachLocation

Historic Weather in Eisenach — Graph

°F

Eisenach temperature yesterday

Maximum temperature yesterday: 39 °F (at 3:00 PM)
Minimum temperature yesterday: 32 °F (at 6:00 AM)
Average temperature yesterday: 35 °F

Past Weeks' High & Low Weather Summary

 TemperatureHumidityPressure
High46 °F (Feb 20, 4:00 PM)100% (Feb 19, 6:00 AM)30.68 "Hg (Feb 19, 6:00 AM)
Low26 °F (Feb 19, 6:00 PM)50% (Mar 2, 3:00 PM)29.47 "Hg (Feb 21, 9:00 AM)
Average34 °F82%30.00 "Hg
* Reported Feb 18 9:00 PM — Mar 5 9:00 PM, Eisenach, Weather by CustomWeather, © 2015

Note: Actual official high and low records may vary slightly from our data, if they occured in-between our weather recording intervals... More about our weather records

Advertising

Eisenach weather history for previous 24 hours

 ConditionsComfort  
Time TempWeatherWind HumidityBarometerVisibility
9:00 PM
Thu, Mar 5
36 °FOvercast.3 mph75%30.63 "Hg22 mi
8:00 PM36 °FOvercast.2 mph74%30.63 "Hg28 mi
7:00 PM37 °FOvercast.2 mph71%30.62 "Hg31 mi
6:00 PM38 °FOvercast.2 mph68%30.61 "Hg31 mi
5:00 PM38 °FOvercast.5 mph64%30.60 "Hg37 mi
4:00 PM38 °FOvercast.7 mph63%30.59 "Hg40 mi
3:00 PM38 °FOvercast.6 mph67%30.58 "Hg28 mi
2:00 PM38 °FOvercast.8 mph63%30.59 "Hg19 mi
1:00 PM37 °FOvercast.6 mph72%30.60 "Hg31 mi
12:00 PM37 °FOvercast.6 mph70%30.60 "Hg25 mi
11:00 AM36 °FOvercast.9 mph71%30.59 "Hg17 mi
9:00 AM33 °FScattered clouds.9 mph75%30.57 "Hg14 mi
8:00 AM33 °FPartly sunny.7 mph81%30.56 "Hg25 mi
7:00 AM33 °FOvercast.7 mph81%30.54 "Hg28 mi
6:00 AM33 °FOvercast.7 mph79%30.52 "Hg28 mi
5:00 AM34 °FOvercast.8 mph80%30.48 "Hg31 mi
3:00 AM34 °FLow clouds.7 mph89%30.44 "Hg31 mi
2:00 AM33 °FLight snow. Low clouds.6 mph92%30.42 "Hg14 mi
1:00 AM35 °FPassing clouds.6 mph85%30.40 "Hg19 mi
12:00 AM35 °FLight snow. Passing clouds.5 mph84%30.38 "Hg2 mi
11:00 PM
Wed, Mar 4
34 °FPassing clouds.3 mph83%30.37 "Hg17 mi
Weather by CustomWeather, © 2015

See weather overviewHow to use our weather pages